Location: Fauquembergues
(50.6005°N, 2.0987°E)
Time: 07:44:59
(UTC+00:00)

Cosmos 1697 Rocket - Pass Details

Date: 14 July 2020
Orbit: 834 x 842 km, 71.0° (Epoch: 14 August)

Event Time Altitude Azimuth Distance (km) Brightness Sun altitude
Rises 02:07:12 0° 328° (NNW) 3,399 6.2 -12.3°
Reaches altitude 10° 02:09:41 10° 324° (NW) 2,460 5.4 -12.1°
Maximum altitude 02:15:12 57° 247° (WSW) 980 2.8 -11.7°
Drops below altitude 10° 02:20:39 10° 170° (S) 2,439 4.7 -11.2°
Enters shadow 02:22:28 - 167° (SSE) 3,124 5.2 -11.0°
